EST,Max TemperatureF,Mean TemperatureF,Min TemperatureF,Max Dew PointF,MeanDew PointF,Min DewpointF,Max Humidity, Mean Humidity, Min Humidity, Max Sea Level PressureIn, Mean Sea Level PressureIn, Min Sea Level PressureIn, Max VisibilityMiles, Mean VisibilityMiles, Min VisibilityMiles, Max Wind SpeedMPH, Mean Wind SpeedMPH, Max Gust SpeedMPH,PrecipitationIn, CloudCover, Events, WindDirDegrees
2011-11-1,57,46,37,39,36,33,89,70,47,30.37,30.32,30.27,10,10,6,8,2,,0.00,2,,36
2011-11-2,60,44,30,41,35,30,100,79,48,30.43,30.35,30.26,10,5,0,6,2,,0.00,0,Fog,130
2011-11-3,61,48,35,45,39,34,97,80,51,30.24,30.10,29.96,10,6,2,7,2,,0.00,0,,141
2011-11-4,54,48,39,43,32,22,93,58,33,30.29,30.07,29.92,10,8,3,18,7,23,0.00,1,,21
2011-11-5,52,40,30,26,24,20,72,54,32,30.49,30.42,30.31,10,10,10,12,5,,0.00,0,,59
2011-11-6,55,42,28,37,32,25,89,73,51,30.56,30.47,30.40,10,9,6,8,2,,0.00,0,,161
2011-11-7,62,48,33,43,38,30,100,82,44,30.40,30.35,30.28,10,4,0,6,2,,0.00,1,Fog,279
2011-11-8,69,53,37,47,43,36,93,72,40,30.30,30.25,30.20,10,7,3,7,1,,0.00,0,,136
2011-11-9,62,48,35,52,41,35,100,88,50,30.20,30.12,29.99,10,4,0,10,1,,0.00,1,Fog,128
2011-11-10,53,48,43,52,46,32,100,91,65,29.97,29.88,29.76,10,4,0,16,6,22,0.06,7,Fog-Rain,324
2011-11-11,46,39,32,31,27,25,75,62,44,30.08,29.90,29.76,10,10,10,25,13,37,0.00,1,,280
2011-11-12,59,44,28,33,28,23,86,58,34,30.12,30.10,30.05,10,10,8,15,5,22,0.00,0,,205
2011-11-13,57,46,35,40,34,28,89,62,34,30.12,30.03,29.94,10,9,6,12,4,,0.00,0,,148
2011-11-14,70,58,45,51,45,30,80,60,43,29.95,29.86,29.75,10,10,6,13,4,17,0.00,0,,188
2011-11-15,63,58,53,56,53,51,100,86,65,29.98,29.91,29.75,10,7,1,14,5,,0.02,8,Rain,272
2011-11-16,55,52,50,55,53,47,100,94,86,29.96,29.84,29.71,10,3,1,9,3,,0.71,8,Rain,49
2011-11-17,50,42,35,47,28,22,93,58,47,30.15,29.97,29.85,10,10,8,17,9,28,0.00,6,,304
2011-11-18,42,36,28,23,20,18,78,52,40,30.45,30.38,30.17,10,10,8,17,12,,0.00,0,,260
2011-11-19,51,40,28,32,25,21,81,60,31,30.44,30.36,30.24,10,10,6,13,4,,0.00,0,,150
2011-11-20,55,46,37,49,42,33,93,80,69,30.22,30.17,30.13,10,8,3,5,2,,0.05,3,Rain,125
2011-11-21,51,48,46,50,46,42,100,90,74,30.29,30.21,30.12,10,5,0,8,2,,0.17,8,Fog-Rain,47
2011-11-22,51,48,46,50,45,44,100,94,92,30.30,30.19,29.83,9,3,1,14,7,,1.07,8,Rain,73
2011-11-23,57,48,39,54,48,31,100,90,65,30.08,29.71,29.60,10,5,0,24,8,36,0.83,7,Fog-Rain,347
2011-11-24,57,44,30,36,33,28,89,67,45,30.23,30.20,30.10,10,10,8,14,6,,0.00,0,,294
2011-11-25,61,48,36,37,34,32,86,66,37,30.26,30.21,30.16,10,10,7,10,4,,0.00,0,,263
2011-11-26,61,47,33,41,36,30,89,69,35,30.26,30.21,30.17,10,8,4,7,2,,0.00,0,,248
2011-11-27,63,50,37,50,44,34,97,78,63,30.15,30.10,30.05,10,8,4,14,4,22,0.00,1,,132
2011-11-28,66,60,53,55,51,49,90,76,52,30.15,30.08,30.00,10,10,10,13,8,,0.00,6,,159
2011-11-29,64,56,46,61,53,44,97,90,84,29.99,29.77,29.62,10,8,1,20,9,29,0.75,8,Rain,153
2011-11-30,46,42,36,45,34,28,93,71,58,30.07,29.77,29.61,10,10,10,24,10,31,0.00,6,,255